Content
SEND FEEDBACK

Daily
Averages
Monthly
Summary
Czech Republic

DECIN, CZECH REPUBLIC


Home > Europe > Czech Republic
Elevation: 945 feet     Latitude: 50 48N     Longitude: 014 12E

WEATHER
 
SELECT A DAY
Number of Records: 317,030;   Date Range: 7/3/96 - 7/20/14
 
SHARE

PRINT THIS DATA

[ ← Previous Day ]
WEATHER ALMANAC - FEBRUARY 13, 2013
[ Next Day → ]
[ °C ]   °F
Weather ElementAverageHighLow
Temperature27.4 °F28.4 °F (10:50 am)26 °F (6:00 am)
Dewpoint26.4 °F28.4 °F (10:50 am)24.8 °F (12:50 am)
Humidity95.1 %100 % (12:20 am)84 % (2:00 pm)
Barometer30.16 in30.37 in (11:00 pm)29.95 in (12:20 am)
Wind Speed5.2 mph8.1 mph (12:50 pm)
Weather ElementAverage
Visibility1.9 mi
Wind DirectionNW (313 °)

Weather ElementTotal
Precipitation---
Heating Degree Days37.8 (Base 65)
Averaged from 66 records on February 13, 2013
WEATHER CONDITIONS BREAKOUT
WIND DIRECTION BREAKOUT
WEATHER BY HOUR - FEBRUARY 13, 2013
[ °C ]   °F
Local TimeTemperatureDewpointHumidityBarometerVisibilityWind DirectionWind SpeedGust SpeedPrecipitationEventsConditions
12:20 AM26.6 °F26.6 °F100 %29.95 in1.9 miNNE (20°)5.8 mphSnowLight Snow
12:50 AM26.6 °F24.8 °F93 %29.95 in1.9 miNorth (10°)5.8 mphSnowLight Snow
1:00 AM27.0 °F25.0 °F87 %30.02 in2.0 miNorth (10°)4.5 mphSnowLight Snow
1:20 AM26.6 °F26.6 °F100 %29.95 inNorth (360°)5.8 mphSnowLight Snow
1:50 AM26.6 °F26.6 °F100 %29.98 in1.6 miNorth (350°)4.6 mphSnowLight Snow
2:00 AM27.0 °F25.0 °F89 %30.04 in2.0 miNorth4.5 mphSnowLight Snow
2:20 AM26.6 °F26.6 °F100 %29.98 in0.9 miNorth (350°)4.6 mphSnowSnow
2:50 AM26.6 °F26.6 °F100 %29.98 in1.4 miNorth (350°)5.8 mphSnowLight Snow
3:00 AM27.0 °F25.0 °F89 %30.04 in1.0 miNorth (350°)4.5 mphSnowLight Snow
3:20 AM26.6 °F26.6 °F100 %29.98 in1.4 miNorth (350°)4.6 mphSnowLight Snow
3:50 AM26.6 °F26.6 °F100 %29.98 in1.5 miNorth (350°)4.6 mphSnowLight Snow
4:20 AM26.6 °F26.6 °F100 %30.01 in1.4 miNorth (350°)4.6 mphSnowLight Snow
4:50 AM26.6 °F26.6 °F100 %30.01 in1.2 miNNW (340°)4.6 mphSnowLight Snow
5:00 AM27.0 °F25.0 °F89 %30.08 in1.0 miNNW (340°)4.5 mphSnowLight Snow
5:20 AM26.6 °F26.6 °F100 %30.01 in1.4 miNNW (330°)4.6 mphSnowLight Snow
5:50 AM26.6 °F26.6 °F100 %30.04 in1.2 miNNW (330°)4.6 mphSnowLight Snow
6:00 AM26.0 °F25.0 °F93 %30.10 in1.0 miNNW (330°)4.5 mphSnowLight Snow
6:20 AM26.6 °F26.6 °F100 %30.04 in1.1 miNNW (330°)4.6 mphSnowSnow
6:50 AM26.6 °F26.6 °F100 %30.04 in1.1 miNNW (330°)5.8 mphSnowLight Snow
7:00 AM26.0 °F25.0 °F94 %30.12 in1.0 miNNW (330°)4.5 mphSnowLight Snow
7:20 AM26.6 °F26.6 °F100 %30.06 in1.0 miNNW (330°)4.6 mphSnowLight Snow
7:50 AM26.6 °F26.6 °F100 %30.06 in0.9 miNNW (340°)4.6 mphSnowLight Snow
8:00 AM27.0 °F25.0 °F90 %30.14 in1.0 miNNW (340°)4.5 mphSnowLight Snow
8:20 AM26.6 °F26.6 °F100 %30.06 in0.9 miNNW (330°)5.8 mphSnowLight Snow
8:50 AM26.6 °F26.6 °F100 %30.09 in0.8 miNNW (330°)4.6 mphSnowLight Snow
9:20 AM26.6 °F26.6 °F100 %30.09 in0.8 miNNW (330°)4.6 mphSnowLight Snow
9:50 AM26.6 °F26.6 °F100 %30.12 in1.2 miNW (320°)5.8 mphSnowLight Snow
10:20 AM26.6 °F26.6 °F100 %30.12 in1.6 miNW (320°)5.8 mphSnowLight Snow
10:50 AM28.4 °F28.4 °F100 %30.15 in1.9 miNNW (330°)5.8 mphSnowLight Snow
11:00 AM27.0 °F26.0 °F94 %30.21 in2.0 miNNW (330°)4.5 mphSnowLight Snow
11:20 AM28.4 °F28.4 °F100 %30.15 inNW (320°)6.9 mphSnowLight Snow
11:50 AM28.4 °F26.6 °F93 %30.15 inNW (320°)6.9 mphSnowLight Snow
12:00 PM28.0 °F26.0 °F88 %30.23 in3.0 miNW (320°)6.7 mphSnowLight Snow
12:20 PM28.4 °F26.6 °F93 %30.15 in3.1 miNW (320°)5.8 mphSnowLight Snow
12:50 PM28.4 °F26.6 °F93 %30.15 in3.7 miNNW (330°)8.1 mphMostly Cloudy
1:00 PM28.0 °F26.0 °F86 %30.24 in4.0 miNNW (330°)6.7 mphSnowLight Snow
1:20 PM28.4 °F24.8 °F86 %30.18 in3.7 miNNW (340°)6.9 mphMostly Cloudy
1:50 PM28.4 °F26.6 °F93 %30.18 in3.7 miNNW (340°)5.8 mphMostly Cloudy
2:00 PM28.0 °F25.0 °F84 %30.26 in4.0 miNNW (340°)4.5 mphMist
2:20 PM28.4 °F26.6 °F93 %30.18 in3.1 miNNW (330°)5.8 mphMostly Cloudy
2:50 PM28.4 °F26.6 °F93 %30.21 in3.1 miNNW (330°)5.8 mphSnowLight Snow
3:00 PM28.0 °F25.0 °F85 %30.28 in3.0 miNNW (330°)4.5 mphSnowLight Snow
3:20 PM28.4 °F26.6 °F93 %30.21 inNNW (330°)5.8 mphSnowLight Snow
3:50 PM28.4 °F26.6 °F93 %30.21 inNW (320°)5.8 mphSnowLight Snow
4:20 PM28.4 °F26.6 °F93 %30.21 inNW (320°)5.8 mphSnowLight Snow
4:50 PM28.4 °F26.6 °F93 %30.24 in2.5 miNW (320°)5.8 mphSnowLight Snow
5:00 PM28.0 °F26.0 °F88 %30.30 in2.0 miNW (320°)4.5 mphSnowLight Snow
5:20 PM28.4 °F26.6 °F93 %30.24 inNW (320°)5.8 mphSnowLight Snow
5:50 PM28.4 °F26.6 °F93 %30.24 in2.2 miNW (320°)4.6 mphSnowLight Snow
6:00 PM28.0 °F26.0 °F90 %30.33 in2.0 miNW (320°)4.5 mphSnowLight Snow
6:20 PM28.4 °F26.6 °F93 %30.27 in2.2 miNW (320°)5.8 mphSnowLight Snow Grains
6:50 PM28.4 °F26.6 °F93 %30.27 in2.2 miNNW (330°)4.6 mphSnowLight Snow Grains
7:00 PM28.0 °F26.0 °F90 %30.34 in2.0 miNNW (330°)4.5 mphSnowSnow Grains
7:20 PM28.4 °F26.6 °F93 %30.27 inNW (320°)4.6 mphSnowLight Snow Grains
7:50 PM28.4 °F28.4 °F100 %30.27 in1.7 miNNW (330°)4.6 mphSnowLight Snow Grains
8:00 PM28.0 °F26.0 °F89 %30.34 in2.0 miNNW (330°)4.5 mphSnowSnow Grains
8:20 PM28.4 °F28.4 °F100 %30.27 in1.7 miNNW (330°)4.6 mphSnowLight Snow Grains
8:50 PM28.4 °F28.4 °F100 %30.27 in1.7 miNNW (330°)5.8 mphMostly Cloudy
9:00 PM28.0 °F26.0 °F88 %30.35 in2.0 miNNW (330°)4.5 mphRainLight Drizzle
9:20 PM28.4 °F28.4 °F100 %30.27 in1.7 miNNW (340°)4.6 mphMostly Cloudy
9:50 PM26.6 °F26.6 °F100 %30.30 in1.7 miNNW (340°)5.8 mphSnowLight Snow Grains
10:20 PM26.6 °F26.6 °F100 %30.30 in1.7 miNNW (330°)5.8 mphMostly Cloudy
10:50 PM26.6 °F26.6 °F100 %30.30 in1.9 miNNW (340°)4.6 mphMostly Cloudy
11:00 PM27.0 °F25.0 °F91 %30.37 in2.0 miNNW (330°)4.5 mphRainLight Drizzle
11:20 PM26.6 °F26.6 °F100 %30.30 in1.9 miNorth (350°)3.5 mphMostly Cloudy
11:50 PM26.6 °F26.6 °F100 %30.30 in1.9 miNorth (350°)3.5 mphMostly Cloudy
Hourly data recorded from EDDC, located miles away from Decin, Czech Republic







STORIES FROM OUR PARTNERS